• Join FlightAware (Why Join?)
  • Login
  • US Flag 
08:28AM EST


 

Airport Tracker/Info


-or-


 

Live Flight TrackerFlight Track Log ✈ SKW5641 ✈ 28-Apr-2013 ✈ KSLC - KDEN

Flight Track Log - Related Links

Times and Time Zones

All times are in EDT time to prevent confusion due to time zone crossing. See the SKW5641 flight status page for this flight to view local times or setup timezone preferences in your user account.

Time Position Orientation Groundspeed Altitude Reporting Facility
EDT Latitude Longitude Course Direction KTS MPH feet Rate Location/Type
07:38PM 40.8056 -111.9628 354° North 173 199 5,000  Level Salt Lake Center
07:38PM 40.8333 -111.9669 354° North 170 196 5,700 1,742 Climbing Salt Lake Center
07:39PM 40.8994 -111.9764 354° North 240 276 7,700 2,341 Climbing Salt Lake Center
07:40PM 40.9731 -111.9844 355° North 261 300 10,500 2,585 Climbing Salt Lake Center
07:41PM 41.0142 -111.8969 58° Northeast 311 358 13,000 1,887 Climbing Salt Lake Center
07:42PM 40.9722 -111.7642 113° Southeast 352 405 14,400 1,268 Climbing Salt Lake Center
07:43PM 40.9294 -111.6294 113° Southeast 400 460 15,600 1,317 Climbing Salt Lake Center
07:44PM 40.9142 -111.4711 97° East 438 504 17,100 1,610 Climbing Salt Lake Center
07:45PM 40.9014 -111.3069 96° East 451 519 18,900 1,805 Climbing Salt Lake Center
07:47PM 40.8878 -111.1417 96° East 454 522 20,800 1,854 Climbing Salt Lake Center
07:48PM 40.8750 -110.9753 96° East 456 525 22,700 1,854 Climbing Salt Lake Center
07:49PM 40.8608 -110.8089 96° East 457 526 24,600 1,854 Climbing Salt Lake Center
07:50PM 40.8444 -110.6111 96° East 455 524 26,500 1,220 Climbing Salt Lake Center
07:51PM 40.8308 -110.4431 96° East 465 535 27,100 585 Climbing Salt Lake Center
07:52PM 40.8164 -110.2692 96° East 495 570 27,700 585 Climbing Salt Lake Center
07:53PM 40.7989 -110.0853 97° East 509 586 28,300 829 Climbing Salt Lake Center
07:54PM 40.7811 -109.8753 96° East 514 592 29,400 1,024 Climbing Salt Lake Center
07:55PM 40.7653 -109.6944 97° East 517 595 30,400 1,016 Climbing Salt Lake Center
07:56PM 40.7456 -109.4856 97° East 515 593 31,500 1,024 Climbing Salt Lake Center
07:57PM 40.7283 -109.3078 97° East 510 587 32,500 1,024 Climbing Salt Lake Center
07:58PM 40.7103 -109.1142 97° East 512 589 33,600 976 Climbing Salt Lake Center
07:59PM 40.6925 -108.9417 98° East 504 580 34,500 938 Climbing Salt Lake Center
07:59PM 40.6833 -108.8361 96° East 502 578 35,100 1,052 Climbing Denver Center
08:00PM 40.6636 -108.6339 97° East 498 573 36,200 1,023 Climbing Denver Center
08:01PM 40.6553 -108.5692 100° East 496 571 36,600 1,023 Climbing Salt Lake Center
08:02PM 40.6353 -108.3725 98° East 489 563 37,700 1,052 Climbing Salt Lake Center
08:02PM 40.6250 -108.2669 97° East 485 558 38,300 984 Climbing Denver Center
08:03PM 40.6186 -108.2069 98° East 480 552 38,700 677 Climbing Salt Lake Center
08:04PM 40.6078 -108.1022 98° East 476 548 39,000 184 Climbing Denver Center
08:05PM 40.5861 -107.9089 98° East 479 551 39,000  Level Denver Center
08:06PM 40.5681 -107.7392 98° East 486 559 39,000  Level Denver Center
08:07PM 40.5497 -107.5658 98° East 496 571 39,000  Level Denver Center
08:08PM 40.5267 -107.3639 98° East 498 573 39,000  Level Denver Center
08:09PM 40.5142 -107.2069 96° East 498 573 39,000  Level Denver Center
08:10PM 40.5067 -106.9864 92° East 500 575 39,000 -339 Level Denver Center
08:11PM 40.5431 -106.8158 74° East 488 562 38,300 -968 Descending Denver Center
08:12PM 40.5792 -106.6408 75° East 493 567 37,000 -1,355 Descending Denver Center
08:13PM 40.6181 -106.4656 74° East 488 562 35,500 -2,098 Descending Denver Center
08:14PM 40.6519 -106.2950 75° East 497 572 32,700 -2,976 Descending Denver Center
08:15PM 40.6497 -106.0942 91° East 519 597 29,400 -2,710 Descending Denver Center
08:16PM 40.5897 -105.9294 116° Southeast 501 577 27,100 -1,161 Descending Denver Center
08:17PM 40.5219 -105.7842 122° Southeast 468 539 27,000 -1,065 Descending Denver Center
08:18PM 40.4147 -105.6944 147° Southeast 453 521 24,900 -2,226 Descending Denver Center
08:19PM 40.3306 -105.5539 128° Southeast 449 517 22,400 -1,984 Descending Denver Center
08:20PM 40.2831 -105.4167 114° Southeast 429 494 20,800 -1,220 Descending Denver Center
08:21PM 40.2353 -105.2944 117° Southeast 380 437 19,900 -1,122 Descending Denver Center
08:22PM 40.1875 -105.1719 117° Southeast 354 407 18,500 -1,452 Descending Denver Center
08:23PM 40.1333 -105.0719 125° Southeast 335 386 16,900 -1,452 Descending Denver Center
08:24PM 40.0844 -104.9806 125° Southeast 306 352 15,500 -1,790 Descending Denver Center
08:25PM 40.0367 -104.8911 125° Southeast 279 321 13,200 -1,548 Descending Denver Center
08:26PM 39.9950 -104.8117 124° Southeast 269 310 12,300 -878 Descending Denver Center
08:27PM 39.9875 -104.7186 96° East 262 302 11,400 -585 Descending Denver Center
08:28PM 39.9850 -104.6139 92° East 267 307 11,100 -211 Descending Denver Center
08:29PM 39.9667 -104.5333 107° East 272 313 11,000 -595 Descending Denver TRACON
08:30PM 39.9333 -104.4500 118° Southeast 255 293 10,000 -1,160 Descending Denver TRACON
08:31PM 39.9000 -104.4000 131° Southeast 240 276 8,700 -1,200 Descending Denver TRACON
08:32PM 39.8833 -104.4667 252° West 183 211 7,700 -1,096 Descending Denver TRACON
08:33PM 39.8833 -104.5333 270° West 177 204 6,600 -900 Descending Denver TRACON
08:34PM 39.8833 -104.5833 270° West 153 176 5,900 -493 Descending Denver TRACON
08:35PM 39.8772 -104.6519 263° West 150 173 5,400 -349 Descending Denver Center
08:37PM 39.8617 -104.6732 180° South  Level Estimated
08:44PM 39.8617 -104.6732 14° North  Level Estimated
08:45PM 39.8617 -104.6732 North  Level Estimated
08:46PM 39.8617 -104.6732 North  Level Estimated